period_start,C,m1,H,J0,J1,J2,J3,J4,J5,JA,JB,JC,JD,JJ,JK,JN,#
2017-08-04 00:01:34,-0.01,0.03,0.00,23.26,27.83,30.53,13.80,46.52,1008.19,2029.00,3521.61,3079.00,3528.99,600.03,590.71,14.39,0000 0000 0000 0000 000000
2017-08-04 00:06:35,0.00,0.03,0.00,23.25,27.81,30.48,13.76,46.42,1008.28,2029.08,3521.84,3079.15,3529.00,599.81,590.40,14.44,0000 0000 0000 0000 000000
2017-08-04 00:11:36,0.01,0.03,0.00,23.25,27.79,30.48,13.79,46.22,1008.29,2029.35,3521.99,3079.69,3529.09,599.78,590.52,14.49,0000 0000 0000 0000 000000
2017-08-04 00:16:37,-0.00,0.03,0.00,23.24,27.76,30.51,13.77,46.29,1008.31,2029.55,3521.99,3079.90,3529.26,600.19,590.87,14.54,0000 0000 0000 0000 000000
2017-08-04 00:21:39,0.02,0.03,0.00,23.24,27.75,30.51,13.86,46.17,1008.31,2029.73,3521.99,3079.95,3529.56,600.03,590.51,14.59,0000 0000 0000 0000 000000
2017-08-04 00:26:40,0.01,0.03,0.00,23.22,27.72,30.48,13.93,46.38,1008.32,2029.95,3521.99,3079.98,3529.94,600.32,590.92,14.64,0000 0000 0000 0000 000000
2017-08-04 00:31:41,0.00,0.03,0.00,23.21,27.71,30.49,13.80,46.19,1008.42,2029.98,3522.01,3079.99,3529.99,599.71,590.62,14.69,0000 0000 0000 0000 000000
2017-08-04 00:36:43,-0.00,0.03,0.00,23.20,27.69,30.47,13.83,46.33,1008.45,2029.99,3522.15,3079.99,3529.99,599.94,590.76,14.74,0000 0000 0000 0000 000000
2017-08-04 00:41:44,-0.01,0.03,0.00,23.19,27.67,30.45,13.85,46.44,1008.56,2029.99,3522.58,3080.01,3529.99,600.01,590.93,14.79,0000 0000 0000 0000 000000
2017-08-04 00:46:45,-0.01,0.03,0.00,23.17,27.65,30.44,13.85,46.36,1008.56,2029.99,3522.93,3080.13,3530.01,600.08,591.02,14.84,0000 0000 0000 0000 000000
2017-08-04 00:51:47,-0.00,0.03,0.00,23.15,27.63,30.42,13.90,46.43,1008.41,2029.99,3522.97,3080.35,3530.04,600.24,591.23,14.89,0000 0000 0000 0000 000000
2017-08-04 00:56:48,-0.02,0.03,0.00,23.12,27.62,30.38,13.86,46.27,1008.38,2030.00,3522.99,3080.90,3530.51,600.16,591.05,14.94,0000 0000 0000 0000 000000
2017-08-04 01:01:49,0.00,0.03,0.00,23.12,27.60,30.38,13.88,46.33,1008.45,2030.02,3522.99,3080.98,3530.83,599.68,590.72,14.99,0000 0000 0000 0000 000000
2017-08-04 01:06:50,0.00,0.03,0.00,23.10,27.57,30.40,13.91,46.60,1008.48,2030.04,3523.00,3080.99,3530.96,600.16,591.22,15.04,0000 0000 0000 0000 000000
2017-08-04 01:11:52,0.02,0.03,0.00,23.08,27.56,30.34,13.81,46.48,1008.53,2030.19,3523.04,3080.99,3530.99,599.72,590.93,15.09,0000 0000 0000 0000 000000
2017-08-04 01:16:53,0.02,0.03,0.00,23.06,27.54,30.31,13.86,46.57,1008.35,2030.51,3523.13,3081.00,3531.00,599.81,590.89,15.14,0000 0000 0000 0000 000000
2017-08-04 01:21:54,0.02,0.03,0.00,23.04,27.52,30.31,13.83,46.32,1008.60,2030.70,3523.15,3081.01,3531.01,600.08,591.12,15.19,0000 0000 0000 0000 000000
2017-08-04 01:26:55,0.01,0.03,0.00,23.02,27.50,30.32,13.87,46.32,1008.81,2030.94,3523.64,3081.10,3531.07,600.10,591.58,15.24,0000 0000 0000 0000 000000
2017-08-04 01:31:56,-0.00,0.03,0.00,23.00,27.48,30.24,13.78,46.48,1008.83,2030.99,3523.81,3081.22,3531.26,599.50,591.04,15.29,0000 0000 0000 0000 000000
2017-08-04 01:36:58,-0.02,0.03,0.00,22.99,27.46,30.26,13.83,46.24,1008.92,2030.99,3523.96,3081.74,3531.81,599.97,591.58,15.34,0000 0000 0000 0000 000000
2017-08-04 01:41:59,-0.00,0.03,0.00,22.96,27.45,30.21,13.81,46.33,1008.83,2030.99,3523.99,3081.89,3531.92,599.95,591.42,15.39,0000 0000 0000 0000 000000
2017-08-04 01:47:00,0.00,0.03,0.00,22.93,27.42,30.23,13.85,46.41,1008.86,2030.99,3523.99,3081.97,3531.97,599.88,591.50,15.44,0000 0000 0000 0000 000000
2017-08-04 01:52:02,0.00,0.03,0.00,22.92,27.40,30.18,13.91,46.38,1008.82,2030.99,3523.99,3081.97,3531.98,600.10,591.61,15.49,0000 0000 0000 0000 000000
2017-08-04 01:57:03,0.00,0.03,0.00,22.90,27.39,30.18,13.89,46.28,1008.80,2031.00,3524.00,3081.99,3531.99,599.60,591.26,15.54,0000 0000 0000 0000 000000
2017-08-04 02:02:04,0.00,0.03,0.00,22.88,27.36,30.18,13.90,46.38,1008.82,2031.03,3524.00,3081.99,3532.01,600.23,591.97,15.60,0000 0000 0000 0000 000000
2017-08-04 02:07:05,0.00,0.03,0.00,22.85,27.35,30.18,13.91,46.63,1008.81,2031.09,3524.03,3082.01,3532.05,600.33,591.86,15.65,0000 0000 0000 0000 000000
2017-08-04 02:12:06,0.06,0.03,0.00,22.82,27.32,30.16,13.91,46.73,1008.81,2031.31,3523.94,3081.48,3531.63,600.15,592.01,15.70,0000 0000 0000 0000 000000
2017-08-04 02:17:07,0.03,0.04,0.00,22.80,27.30,30.10,13.85,46.63,1008.85,2031.77,3523.91,3081.27,3531.66,599.92,591.78,15.75,0000 0000 0000 0000 000000
2017-08-04 02:22:09,0.05,0.04,0.00,22.78,27.28,30.10,13.92,46.73,1008.90,2031.97,3522.86,3081.12,3531.37,600.28,592.16,15.80,0000 0000 0000 0000 000000
2017-08-04 02:27:10,0.00,0.04,0.00,22.75,27.26,30.08,13.87,46.58,1009.00,2031.99,3522.00,3080.98,3530.99,599.72,591.67,15.85,0000 0000 0000 0000 000000
2017-08-04 02:32:11,0.00,0.04,0.00,22.74,27.25,30.02,13.87,46.73,1008.84,2031.99,3522.00,3080.99,3530.99,600.18,592.22,15.90,0000 0000 0000 0000 000000
2017-08-04 02:37:12,0.00,0.04,0.00,22.71,27.22,30.03,13.85,46.74,1008.96,2031.99,3522.00,3080.99,3531.00,600.12,592.32,15.95,0000 0000 0000 0000 000000
2017-08-04 02:42:13,0.00,0.04,0.00,22.69,27.20,30.01,13.91,46.59,1009.29,2031.99,3522.00,3080.99,3531.01,600.02,592.51,16.00,0000 0000 0000 0000 000000
2017-08-04 02:47:15,0.00,0.04,0.00,22.66,27.18,29.96,13.87,46.72,1009.30,2032.00,3522.09,3081.01,3531.09,599.86,592.27,16.05,0000 0000 0000 0000 000000
2017-08-04 02:52:16,-0.00,0.04,0.00,22.63,27.16,29.91,13.89,46.75,1009.26,2032.02,3522.16,3081.05,3531.31,599.74,592.26,16.10,0000 0000 0000 0000 000000
2017-08-04 02:57:17,0.01,0.04,0.00,22.61,27.14,29.90,13.83,46.92,1009.28,2032.16,3522.34,3081.11,3531.63,599.42,592.02,16.15,0000 0000 0000 0000 000000
2017-08-04 03:02:18,0.02,0.04,0.00,22.59,27.11,29.90,13.91,47.36,1009.25,2032.27,3522.11,3080.99,3531.22,599.72,592.19,16.20,0000 0000 0000 0000 000000
2017-08-04 03:07:19,0.20,0.05,0.00,22.57,27.09,29.90,13.89,47.13,1009.27,2032.68,3520.24,3078.34,3528.30,599.80,592.32,16.25,0000 0000 0000 0000 000000
2017-08-04 03:12:21,0.02,0.05,0.00,22.54,27.07,29.87,13.93,47.07,1009.75,2032.95,3519.87,3077.83,3527.72,600.30,593.19,16.30,0000 0000 0000 0000 000000
2017-08-04 03:17:22,0.04,0.05,0.00,22.51,27.05,29.87,13.91,47.13,1009.90,2032.97,3519.07,3077.03,3526.93,600.08,593.07,16.35,0000 0000 0000 0000 000000
2017-08-04 03:22:23,0.00,0.05,0.00,22.49,27.02,29.84,13.92,46.92,1010.11,2032.99,3519.04,3077.00,3526.97,600.34,593.55,16.40,0000 0000 0000 0000 000000
2017-08-04 03:27:25,0.00,0.05,0.00,22.46,27.00,29.78,13.93,46.95,1010.24,2032.99,3519.04,3077.00,3526.98,600.46,593.81,16.45,0000 0000 0000 0000 000000
2017-08-04 03:32:26,0.00,0.05,0.00,22.43,26.98,29.77,13.93,46.97,1010.24,2032.99,3519.16,3077.00,3526.99,599.76,593.20,16.50,0000 0000 0000 0000 000000
2017-08-04 03:37:27,0.00,0.05,0.00,22.39,26.96,29.73,13.96,46.83,1010.26,2033.00,3519.25,3077.00,3526.99,600.33,593.81,16.55,0000 0000 0000 0000 000000
2017-08-04 03:42:28,0.00,0.05,0.00,22.37,26.93,29.72,13.93,46.67,1010.29,2033.03,3519.30,3077.01,3526.99,600.01,593.70,16.60,0000 0000 0000 0000 000000
2017-08-04 03:47:30,-0.00,0.05,0.00,22.34,26.91,29.67,13.92,46.76,1010.29,2033.12,3519.65,3077.03,3527.01,600.27,593.99,16.65,0000 0000 0000 0000 000000
2017-08-04 03:52:31,0.07,0.06,0.00,22.31,26.88,29.60,13.97,46.84,1010.28,2033.32,3519.36,3076.57,3526.51,600.24,593.94,16.70,0000 0000 0000 0000 000000
2017-08-04 03:57:33,0.05,0.06,0.00,22.28,26.86,29.59,13.96,46.87,1010.31,2033.79,3519.00,3076.12,3526.03,600.00,593.77,16.75,0000 0000 0000 0000 000000
2017-08-04 04:02:34,0.01,0.06,0.00,22.27,26.84,29.61,13.89,47.02,1010.29,2033.96,3518.84,3076.08,3525.86,600.02,593.90,16.80,0000 0000 0000 0000 000000
2017-08-04 04:07:35,0.04,0.06,0.00,22.24,26.81,29.55,13.94,46.92,1010.32,2033.99,3518.07,3075.42,3525.10,599.71,593.43,16.85,0000 0000 0000 0000 000000
2017-08-04 04:12:36,-0.02,0.06,0.00,22.21,26.78,29.51,13.94,46.93,1010.59,2033.99,3518.34,3075.90,3525.42,599.83,593.87,16.90,0000 0000 0000 0000 000000
2017-08-04 04:17:38,-0.00,0.06,0.00,22.17,26.76,29.51,13.92,46.98,1010.50,2034.00,3518.40,3075.97,3525.75,599.81,593.88,16.95,0000 0000 0000 0000 000000
2017-08-04 04:22:39,0.01,0.06,0.00,22.15,26.73,29.48,13.94,47.02,1010.46,2034.03,3518.25,3075.89,3525.72,599.96,593.97,17.00,0000 0000 0000 0000 000000
2017-08-04 04:27:40,0.04,0.06,0.00,22.13,26.71,29.40,13.86,47.17,1010.66,2034.09,3518.00,3075.10,3525.03,599.87,594.26,17.05,0000 0000 0000 0000 000000
2017-08-04 04:32:41,0.12,0.07,0.00,22.10,26.68,29.39,13.94,47.02,1010.73,2034.26,3517.17,3073.60,3523.47,599.82,594.15,17.10,0000 0000 0000 0000 000000
2017-08-04 04:37:43,0.16,0.08,0.00,22.09,26.66,29.41,14.01,47.35,1010.75,2034.82,3515.23,3071.28,3521.01,600.07,594.51,17.15,0000 0000 0000 0000 000000
2017-08-04 04:42:44,0.05,0.08,0.00,22.07,26.63,29.43,13.93,47.07,1010.79,2034.96,3514.60,3070.60,3520.20,600.04,594.48,17.20,0000 0000 0000 0000 000000
2017-08-04 04:47:45,0.02,0.08,0.00,22.05,26.61,29.40,13.94,47.11,1010.83,2034.98,3514.01,3069.93,3519.26,600.10,594.63,17.25,0000 0000 0000 0000 000000
2017-08-04 04:52:47,0.00,0.08,0.00,22.03,26.59,29.36,13.88,47.05,1010.95,2034.99,3513.99,3069.94,3519.02,599.74,594.39,17.30,0000 0000 0000 0000 000000
2017-08-04 04:57:48,0.09,0.09,0.00,22.01,26.57,29.32,13.97,46.99,1010.99,2034.99,3513.12,3068.31,3517.52,600.06,594.83,17.35,0000 0000 0000 0000 000000
2017-08-04 05:02:49,0.09,0.09,0.00,22.00,26.55,29.30,14.02,47.10,1011.24,2034.99,3511.48,3066.19,3515.97,600.39,595.17,17.40,0000 0000 0000 0000 000000
2017-08-04 05:07:50,1.42,0.11,0.00,21.99,26.52,29.29,14.01,46.89,1011.43,2035.00,3493.46,3055.79,3503.92,600.18,595.21,17.45,0000 0000 0000 0000 000000
2017-08-04 05:12:52,0.45,0.18,0.00,21.99,26.51,29.30,13.99,46.83,1011.70,2035.04,3465.72,3039.46,3486.21,600.12,595.23,17.50,0000 0000 0000 0000 000000
2017-08-04 05:17:54,0.01,0.19,0.00,21.99,26.49,29.27,13.95,47.07,1011.73,2035.05,3465.00,3039.01,3485.47,600.24,595.19,17.55,0000 0000 0000 0000 000000
2017-08-04 05:22:55,0.06,0.19,0.00,21.97,26.47,29.25,13.89,46.92,1011.74,2035.32,3464.54,3038.63,3485.01,600.02,595.33,17.60,0000 0000 0000 0000 000000
2017-08-04 05:27:56,0.05,0.19,0.00,21.97,26.45,29.21,13.95,46.94,1011.83,2035.91,3464.20,3038.59,3485.00,599.64,594.94,17.65,0000 0000 0000 0000 000000
2017-08-04 05:32:58,0.01,0.19,0.00,21.97,26.44,29.23,13.99,46.91,1012.02,2035.98,3464.02,3038.30,3484.95,599.86,595.29,17.70,0000 0000 0000 0000 000000
2017-08-04 05:37:59,0.01,0.19,0.00,21.98,26.42,29.26,13.87,47.07,1012.14,2035.98,3463.99,3038.10,3484.58,599.78,595.21,17.75,0000 0000 0000 0000 000000
2017-08-04 05:43:00,0.02,0.20,0.00,21.97,26.40,29.24,13.99,47.02,1012.21,2035.99,3463.66,3038.01,3484.04,600.06,595.58,17.80,0000 0000 0000 0000 000000
2017-08-04 05:48:02,0.00,0.20,0.00,21.97,26.40,29.25,14.04,46.84,1012.24,2035.99,3463.10,3038.00,3484.00,600.07,595.62,17.85,0000 0000 0000 0000 000000
2017-08-04 05:53:03,0.00,0.20,0.00,21.97,26.38,29.26,14.00,47.03,1012.26,2035.99,3463.00,3038.00,3484.00,600.34,595.99,17.90,0000 0000 0000 0000 000000
2017-08-04 05:58:04,0.00,0.20,0.00,21.97,26.37,29.23,13.92,47.09,1012.45,2036.00,3463.00,3038.00,3483.99,599.92,595.60,17.95,0000 0000 0000 0000 000000
2017-08-04 06:03:05,0.00,0.20,0.00,21.99,26.36,29.23,13.99,47.10,1012.63,2036.00,3462.98,3038.00,3483.91,600.30,596.03,18.00,0000 0000 0000 0000 000000
2017-08-04 06:08:07,0.00,0.20,0.00,21.99,26.35,29.23,14.03,46.86,1012.72,2036.02,3462.95,3038.00,3483.84,600.27,595.96,18.05,0000 0000 0000 0000 000000
2017-08-04 06:13:08,0.01,0.20,0.00,21.99,26.35,29.22,13.93,47.01,1012.82,2036.02,3462.49,3038.00,3483.32,599.72,595.54,18.10,0000 0000 0000 0000 000000
2017-08-04 06:18:09,0.01,0.20,0.00,21.99,26.34,29.25,13.92,46.68,1013.12,2036.04,3462.15,3038.00,3483.11,599.74,595.76,18.15,0000 0000 0000 0000 000000
2017-08-04 06:23:11,0.00,0.20,0.00,21.99,26.32,29.26,14.04,46.83,1013.20,2036.10,3462.01,3038.00,3483.02,600.30,596.32,18.20,0000 0000 0000 0000 000000
2017-08-04 06:28:12,0.01,0.20,0.00,22.01,26.32,29.22,13.95,46.83,1013.21,2036.12,3461.97,3037.99,3483.00,599.95,596.00,18.25,0000 0000 0000 0000 000000
2017-08-04 06:33:14,0.00,0.20,0.00,22.03,26.32,29.23,13.96,46.76,1013.39,2036.17,3461.68,3037.97,3482.97,599.71,595.81,18.31,0000 0000 0000 0000 000000
2017-08-04 06:38:15,0.03,0.20,0.00,22.04,26.32,29.26,13.91,46.99,1013.57,2036.18,3461.11,3037.69,3482.46,599.75,595.93,18.36,0000 0000 0000 0000 000000
2017-08-04 06:43:17,0.01,0.20,0.00,22.06,26.32,29.25,13.98,46.98,1013.60,2036.10,3460.94,3037.05,3481.99,600.04,596.13,18.41,0000 0000 0000 0000 000000
2017-08-04 06:48:18,0.03,0.20,0.00,22.08,26.32,29.25,13.94,46.72,1013.56,2036.23,3460.56,3037.00,3481.90,599.97,596.03,18.46,0000 0000 0000 0000 000000
2017-08-04 06:53:20,0.03,0.20,0.00,22.10,26.32,29.25,13.97,46.75,1013.23,2036.40,3460.04,3036.99,3481.18,600.34,596.09,18.51,0000 0000 0000 0000 000000
2017-08-04 06:58:21,0.03,0.20,0.00,22.12,26.32,29.28,13.97,46.67,1013.27,2036.72,3459.99,3036.97,3481.00,600.13,595.94,18.56,0000 0000 0000 0000 000000
2017-08-04 07:03:22,0.01,0.21,0.00,22.15,26.32,29.29,13.93,46.62,1013.66,2036.73,3459.63,3036.82,3480.94,599.58,595.62,18.61,0000 0000 0000 0000 000000
2017-08-04 07:08:24,0.03,0.21,0.00,22.18,26.32,29.29,13.90,46.67,1013.69,2036.65,3459.05,3036.26,3480.37,599.55,595.63,18.66,0000 0000 0000 0000 000000
2017-08-04 07:13:25,0.01,0.21,0.00,22.19,26.32,29.30,13.93,46.63,1013.93,2036.73,3459.00,3036.14,3480.04,600.04,596.07,18.71,0000 0000 0000 0000 000000
2017-08-04 07:18:26,0.02,0.21,0.00,22.21,26.33,29.30,14.09,46.73,1014.11,2036.76,3458.82,3036.01,3479.98,600.25,596.54,18.76,0000 0000 0000 0000 000000
2017-08-04 07:23:27,-0.01,0.21,0.00,22.23,26.34,29.31,13.97,46.52,1013.95,2036.47,3458.10,3035.99,3479.40,599.91,595.89,18.81,0000 0000 0000 0000 000000
2017-08-04 07:28:29,0.00,0.21,0.00,22.24,26.35,29.33,13.97,46.71,1014.14,2036.38,3457.98,3035.95,3479.01,599.88,595.98,18.86,0000 0000 0000 0000 000000
2017-08-04 07:33:30,0.01,0.21,0.00,22.25,26.35,29.33,13.97,46.52,1014.34,2036.29,3457.36,3035.46,3478.98,600.14,596.23,18.91,0000 0000 0000 0000 000000
2017-08-04 07:38:31,0.03,0.21,0.00,22.27,26.35,29.32,13.98,46.50,1014.62,2036.51,3457.01,3035.16,3478.80,600.07,596.45,18.96,0000 0000 0000 0000 000000
2017-08-04 07:43:32,0.00,0.21,0.00,22.27,26.37,29.35,13.94,46.56,1014.82,2036.36,3456.92,3035.02,3478.08,599.63,596.06,19.01,0000 0000 0000 0000 000000
2017-08-04 07:48:33,-0.00,0.21,0.00,22.29,26.37,29.35,14.03,46.66,1015.04,2036.35,3456.23,3034.98,3477.98,600.15,596.64,19.06,0000 0000 0000 0000 000000
2017-08-04 07:53:34,-0.01,0.21,0.00,22.29,26.37,29.38,14.06,46.98,1015.03,2036.09,3456.00,3034.97,3477.57,600.09,596.67,19.11,0000 0000 0000 0000 000000
2017-08-04 07:58:35,0.01,0.21,0.00,22.29,26.39,29.40,14.01,46.53,1014.98,2036.09,3455.95,3034.88,3477.05,600.18,596.75,19.16,0000 0000 0000 0000 000000
2017-08-04 08:03:37,0.03,0.21,0.00,22.29,26.40,29.40,13.97,46.67,1015.07,2036.12,3455.25,3034.49,3477.00,600.37,596.82,19.21,0000 0000 0000 0000 000000
2017-08-04 08:08:38,0.01,0.21,0.00,22.31,26.40,29.38,14.02,46.73,1015.04,2036.11,3455.00,3034.10,3476.91,599.96,596.45,19.26,0000 0000 0000 0000 000000
2017-08-04 08:13:39,0.01,0.21,0.00,22.32,26.40,29.38,13.98,46.83,1015.27,2036.03,3454.79,3034.00,3476.14,600.01,596.54,19.31,0000 0000 0000 0000 000000
2017-08-04 08:18:41,0.01,0.21,0.00,22.36,26.42,29.41,14.00,46.75,1015.66,2036.02,3454.15,3033.92,3475.97,600.43,597.24,19.36,0000 0000 0000 0000 000000
2017-08-04 08:23:42,0.01,0.22,0.00,22.39,26.42,29.41,13.98,47.02,1015.84,2036.01,3453.98,3033.56,3475.30,599.94,596.71,19.41,0000 0000 0000 0000 000000
2017-08-04 08:28:43,0.02,0.22,0.00,22.41,26.42,29.42,14.00,46.92,1016.00,2036.01,3453.51,3033.17,3475.02,600.45,597.04,19.46,0000 0000 0000 0000 000000
2017-08-04 08:33:44,0.00,0.22,0.00,22.43,26.44,29.42,14.00,46.67,1016.10,2036.00,3453.02,3033.03,3474.98,599.92,596.73,19.51,0000 0000 0000 0000 000000
2017-08-04 08:38:46,0.00,0.22,0.00,22.44,26.45,29.43,13.96,46.35,1016.12,2036.01,3452.92,3033.01,3474.73,600.14,596.87,19.56,0000 0000 0000 0000 000000
2017-08-04 08:43:47,0.02,0.22,0.00,22.44,26.45,29.46,13.95,46.60,1016.06,2036.01,3452.22,3033.00,3474.06,600.14,596.88,19.61,0000 0000 0000 0000 000000
2017-08-04 08:48:49,0.00,0.22,0.00,22.44,26.47,29.45,13.93,46.53,1016.13,2036.00,3451.99,3032.93,3473.98,600.12,597.06,19.66,0000 0000 0000 0000 000000
2017-08-04 08:53:50,0.02,0.22,0.00,22.44,26.47,29.48,14.03,46.49,1016.16,2036.00,3451.71,3032.57,3473.58,599.98,596.87,19.71,0000 0000 0000 0000 000000
2017-08-04 08:58:51,0.02,0.22,0.00,22.45,26.48,29.47,13.91,46.50,1016.43,2036.00,3451.08,3032.16,3473.05,599.55,596.59,19.76,0000 0000 0000 0000 000000
2017-08-04 09:03:53,0.00,0.22,0.00,22.45,26.50,29.48,13.97,46.58,1016.56,2036.00,3451.00,3032.04,3473.00,599.97,597.24,19.81,0000 0000 0000 0000 000000
2017-08-04 09:08:54,0.00,0.22,0.00,22.46,26.50,29.49,13.98,46.36,1016.62,2036.00,3450.79,3032.01,3472.95,599.71,596.77,19.86,0000 0000 0000 0000 000000
2017-08-04 09:13:55,0.01,0.22,0.00,22.47,26.51,29.51,14.06,46.39,1016.63,2036.00,3450.14,3032.00,3472.55,600.44,597.65,19.91,0000 0000 0000 0000 000000
2017-08-04 09:18:57,0.00,0.22,0.00,22.47,26.52,29.53,13.93,46.52,1016.60,2036.00,3450.00,3031.99,3472.10,599.79,596.97,19.96,0000 0000 0000 0000 000000
2017-08-04 09:23:58,0.03,0.22,0.00,22.47,26.52,29.53,13.96,46.75,1016.53,2036.00,3449.54,3031.59,3471.93,599.86,596.85,20.01,0000 0000 0000 0000 000000
2017-08-04 09:28:59,0.02,0.23,0.00,22.45,26.53,29.53,13.99,46.39,1016.48,2035.99,3449.03,3031.06,3471.43,600.53,597.43,20.06,0000 0000 0000 0000 000000
2017-08-04 09:34:00,0.00,0.23,0.00,22.44,26.54,29.53,13.90,46.56,1016.38,2035.99,3448.97,3031.01,3471.04,599.45,596.47,20.11,0000 0000 0000 0000 000000
2017-08-04 09:39:01,0.01,0.23,0.00,22.46,26.55,29.54,13.99,46.67,1016.60,2035.96,3448.50,3030.99,3470.99,599.97,597.03,20.16,0000 0000 0000 0000 000000
2017-08-04 09:44:03,0.01,0.23,0.00,22.47,26.55,29.55,14.05,46.80,1016.62,2035.98,3448.02,3030.97,3470.77,600.29,597.33,20.21,0000 0000 0000 0000 000000
2017-08-04 09:49:04,0.02,0.23,0.00,22.47,26.55,29.55,14.00,46.92,1016.67,2035.96,3448.00,3030.65,3470.07,599.85,597.00,20.26,0000 0000 0000 0000 000000
2017-08-04 09:54:05,0.01,0.23,0.00,22.48,26.56,29.58,13.97,46.67,1016.97,2035.95,3447.84,3030.32,3470.00,600.26,597.39,20.31,0000 0000 0000 0000 000000
2017-08-04 09:59:06,0.01,0.23,0.00,22.47,26.57,29.57,13.97,46.66,1017.08,2035.96,3447.20,3030.09,3469.98,599.88,597.26,20.36,0000 0000 0000 0000 000000
2017-08-04 10:04:07,0.00,0.23,0.00,22.47,26.57,29.58,14.04,46.60,1017.10,2035.94,3447.00,3030.01,3469.67,600.44,597.78,20.41,0000 0000 0000 0000 000000
2017-08-04 10:09:09,0.01,0.23,0.00,22.47,26.57,29.58,14.05,46.53,1017.10,2035.93,3446.98,3030.00,3469.16,600.28,597.63,20.46,0000 0000 0000 0000 000000
2017-08-04 10:14:10,0.01,0.23,0.00,22.47,26.57,29.58,13.90,46.50,1017.10,2035.93,3446.36,3030.00,3469.00,599.36,596.87,20.51,0000 0000 0000 0000 000000
2017-08-04 10:19:11,0.00,0.23,0.00,22.47,26.57,29.57,13.92,46.17,1017.10,2035.90,3446.01,3029.98,3468.97,599.84,597.16,20.56,0000 0000 0000 0000 000000
2017-08-04 10:24:13,0.01,0.23,0.00,22.47,26.57,29.57,14.00,46.20,1017.11,2035.89,3445.97,3029.92,3468.46,599.98,597.28,20.61,0000 0000 0000 0000 000000
2017-08-04 10:29:14,0.02,0.23,0.00,22.47,26.58,29.56,13.99,46.31,1017.14,2035.89,3445.41,3029.58,3468.05,599.90,597.42,20.66,0000 0000 0000 0000 000000
2017-08-04 10:34:15,0.02,0.23,0.00,22.47,26.59,29.57,14.06,46.62,1017.19,2035.90,3445.04,3029.30,3468.00,600.15,597.50,20.71,0000 0000 0000 0000 000000
2017-08-04 10:39:17,-0.02,0.23,0.00,22.47,26.60,29.59,13.99,46.67,1017.31,2035.71,3444.98,3029.03,3467.96,600.47,597.90,20.76,0000 0000 0000 0000 000000
2017-08-04 10:44:18,0.03,0.23,0.00,22.48,26.60,29.57,14.03,46.73,1017.39,2035.78,3444.83,3029.00,3467.65,599.75,597.22,20.81,0000 0000 0000 0000 000000
2017-08-04 10:49:20,0.00,0.23,0.00,22.47,26.60,29.58,13.99,46.63,1017.58,2035.71,3444.14,3028.99,3467.07,600.22,597.94,20.86,0000 0000 0000 0000 000000
2017-08-04 10:54:21,0.02,0.23,0.00,22.47,26.60,29.58,14.00,46.44,1017.59,2035.82,3444.00,3028.99,3467.00,600.02,597.64,20.91,0000 0000 0000 0000 000000
2017-08-04 10:59:23,-0.00,0.24,0.00,22.48,26.60,29.60,14.01,46.21,1017.62,2035.91,3443.99,3028.98,3467.00,600.28,597.80,20.96,0000 0000 0000 0000 000000
2017-08-04 11:04:24,0.01,0.24,0.00,22.48,26.60,29.59,13.97,46.35,1017.91,2035.92,3443.96,3028.97,3466.96,599.88,597.77,21.01,0000 0000 0000 0000 000000
2017-08-04 11:09:25,0.00,0.24,0.00,22.47,26.60,29.59,14.04,46.27,1018.08,2035.96,3443.73,3028.96,3466.92,599.87,597.83,21.06,0000 0000 0000 0000 000000
2017-08-04 11:14:26,0.01,0.24,0.00,22.47,26.60,29.57,13.95,46.22,1018.08,2035.97,3443.16,3028.95,3466.59,600.00,597.96,21.11,0000 0000 0000 0000 000000
2017-08-04 11:19:27,0.01,0.24,0.00,22.47,26.60,29.59,13.99,46.09,1018.09,2035.96,3443.01,3028.67,3466.14,600.18,598.13,21.16,0000 0000 0000 0000 000000
2017-08-04 11:24:28,0.01,0.24,0.00,22.47,26.61,29.62,14.00,46.37,1018.16,2035.94,3442.98,3028.11,3466.00,600.06,597.99,21.21,0000 0000 0000 0000 000000
2017-08-04 11:29:29,0.00,0.24,0.00,22.47,26.62,29.59,13.97,46.34,1018.42,2035.98,3442.81,3028.03,3466.00,599.76,597.94,21.26,0000 0000 0000 0000 000000
2017-08-04 11:34:31,0.01,0.24,0.00,22.47,26.62,29.58,14.02,46.10,1018.54,2035.96,3442.10,3028.00,3465.62,599.97,598.20,21.31,0000 0000 0000 0000 000000
2017-08-04 11:39:32,0.01,0.24,0.00,22.49,26.62,29.59,14.04,46.29,1018.57,2035.98,3442.00,3028.00,3465.11,600.23,598.44,21.36,0000 0000 0000 0000 000000
2017-08-04 11:44:33,0.00,0.24,0.00,22.55,26.62,29.59,13.97,46.30,1018.54,2035.97,3441.96,3027.98,3465.01,600.03,598.30,21.42,0000 0000 0000 0000 000000
2017-08-04 11:49:35,0.01,0.24,0.00,22.66,26.62,29.58,13.92,46.17,1018.33,2035.96,3441.53,3027.89,3464.99,599.92,597.75,21.47,0000 0000 0000 0000 000000
2017-08-04 11:54:36,0.01,0.24,0.00,22.78,26.62,29.54,13.89,46.24,1018.14,2035.96,3441.09,3027.47,3464.97,599.62,597.00,21.52,0000 0000 0000 0000 000000
2017-08-04 11:59:37,0.01,0.24,0.00,22.87,26.62,29.57,13.94,46.08,1018.10,2035.96,3441.01,3027.18,3464.84,599.97,597.04,21.57,0000 0000 0000 0000 000000
2017-08-04 12:04:39,0.01,0.24,0.00,22.92,26.63,29.60,14.00,46.02,1018.12,2035.95,3441.00,3027.02,3464.21,600.43,597.51,21.62,0000 0000 0000 0000 000000
2017-08-04 12:09:40,0.00,0.24,0.00,22.90,26.64,29.63,14.01,46.42,1018.11,2035.90,3440.65,3027.00,3464.02,599.83,597.01,21.67,0000 0000 0000 0000 000000
2017-08-04 12:14:41,-0.00,0.24,0.00,22.85,26.65,29.63,13.88,46.12,1018.11,2035.79,3440.04,3027.00,3464.00,599.91,597.16,21.72,0000 0000 0000 0000 000000
2017-08-04 12:19:43,0.01,0.24,0.00,22.81,26.65,29.64,13.98,46.13,1018.15,2035.92,3440.01,3027.00,3463.98,599.86,597.13,21.77,0000 0000 0000 0000 000000
2017-08-04 12:24:44,-0.00,0.24,0.00,22.79,26.65,29.65,14.02,46.33,1018.34,2035.92,3440.00,3026.98,3463.94,599.95,597.50,21.82,0000 0000 0000 0000 000000
2017-08-04 12:29:45,0.01,0.24,0.00,22.76,26.67,29.65,14.04,46.49,1018.54,2035.86,3439.94,3026.66,3463.39,600.38,598.08,21.87,0000 0000 0000 0000 000000
2017-08-04 12:34:46,-0.00,0.24,0.00,22.72,26.67,29.66,13.93,46.43,1018.57,2035.68,3439.38,3026.19,3463.04,599.70,597.45,21.92,0000 0000 0000 0000 000000
2017-08-04 12:39:48,-0.02,0.24,0.00,22.70,26.67,29.66,13.97,46.65,1018.57,2035.37,3439.02,3026.02,3463.00,599.78,597.63,21.97,0000 0000 0000 0000 000000
2017-08-04 12:44:49,-0.01,0.24,0.00,22.69,26.67,29.65,14.03,46.75,1018.56,2035.23,3439.00,3026.00,3462.97,600.36,598.19,22.02,0000 0000 0000 0000 000000
2017-08-04 12:49:50,-0.00,0.24,0.00,22.70,26.68,29.67,13.99,46.65,1018.57,2035.10,3438.90,3026.00,3462.73,599.99,597.78,22.07,0000 0000 0000 0000 000000
2017-08-04 12:54:52,0.01,0.24,0.00,22.67,26.70,29.67,14.04,46.58,1018.58,2035.03,3438.28,3025.98,3462.09,599.90,597.75,22.12,0000 0000 0000 0000 000000